Location: Avully
(45.9633°N, 6.0228°E)
Time: 04:12:20
(UTC+00:00)

Okean 1-7 - Pass Details

Date: 23 May 2024
Orbit: 579 x 604 km, 82.5° (Epoch: 21 June)

Event Time Altitude Azimuth Distance (km) Brightness Sun altitude
Exits shadow 01:30:23 33° 248° (WSW) 1,022 3.8 -18.2°
Maximum altitude 01:31:31 39° 285° (WNW) 902 3.7 -18.1°
Drops below altitude 10° 01:35:36 10° 355° (N) 1,957 6.4 -17.8°
Sets 01:37:57 0° 3° (N) 2,868 7.6 -17.6°
